Regional Weather Roundup
Issued by NWS

Home | Current Version | Previous Version | Text Only | Print | Product List | Glossary On
Versions: 1 2 3 4 5 6 7 8 9 10 11 12 13 14 15 16 17 18 19 20 21 22 23 24 25 26 27 28 29 30 31 32 33 34 35 36 37 38 39 40 41 42 43 44 45 46 47 48 49 50
033
ASUS43 KBIS 172310
RWRND

NORTH DAKOTA REGIONAL WEATHER ROUNDUP
NATIONAL WEATHER SERVICE BISMARCK ND
600 PM CDT MON MAY 17 2021

NOTE: "FAIR" INDICATES FEW OR NO CLOUDS BELOW 12,000 FEET WITH NO
SIGNIFICANT WEATHER AND/OR OBSTRUCTIONS TO VISIBILITY.


NDZ001>003-009>011-017-180000-
NORTHWEST NORTH DAKOTA

CITY           SKY/WX    TMP DP  RH WIND       PRES   REMARKS
WILLISTON      FAIR      84  37  18 S26G43    29.81F
MINOT          FAIR      83  38  20 S18G36    29.87S
MINOT AFB      SUNNY     83  39  20 S17G29    29.85F
$$

NDZ018>021-031>035-040>046-180000-
SOUTHWEST NORTH DAKOTA

CITY           SKY/WX    TMP DP  RH WIND       PRES   REMARKS
BISMARCK       FAIR      80  41  24 S23G33    29.94F
DICKINSON      FAIR      75  47  36 S23G37    29.89F
GARRISON         N/A     80  40  23 S21       29.90F
HETTINGER ARPT FAIR      72  47  40 SE23G32   29.94F
$$

NDZ004>008-012>016-024-026-027-054-180000-
NORTHEAST NORTH DAKOTA

CITY           SKY/WX    TMP DP  RH WIND       PRES   REMARKS
GRAND FORKS    FAIR      83  38  20 S18G30    29.96S
GRND FRKS AFB  MOSUNNY   83  39  21 S24       29.96F
DEVILS LAKE    FAIR      81  41  24 S20       29.95F
$$

NDZ022-023-025-028>030-036>039-047>053-180000-
SOUTHEAST NORTH DAKOTA

CITY           SKY/WX    TMP DP  RH WIND       PRES   REMARKS
FARGO          FAIR      82  42  24 S14G30    29.99F
JAMESTOWN      FAIR      80  39  23 SE23G31   29.97S
$$





USA.gov is the U.S. government's official web portal to all federal, state and local government web resources and services.